Bookmark and Share
Track history (hours):
 

Shin-oh Maru

Last reported at 2014-Apr-22 21:33 UTC. Time now 2014-Apr-23 15:27 UTC.
Position N 35°51' E 141°05'.

Length 161 m; draft 7 m.

Type: Ship (hazmat cat A). MMSI: 431100859.

NotesDate/timePositionNaut miles runAvg speedWind from/ knotsBaromVisibWave heightAir tempDewpointWater temp
2014-Apr-22 21:33N 35°51' E 141°05'1817.8
2014-Apr-22 20:33N 35°35' E 140°56'1817.7
2014-Apr-22 19:32N 35°21' E 140°42'1717.8
2014-Apr-22 18:34N 35°07' E 140°30'1818.0
2014-Apr-22 17:33N 34°57' E 140°11'1817.8
2014-Apr-22 16:32N 34°50' E 139°51'1514.8
2014-Apr-22 15:33N 35°03' E 139°43'1515.2
2014-Apr-22 14:33N 35°18' E 139°44'1515.0
2014-Apr-22 13:33N 35°32' E 139°51'7 6.8
2014-Apr-22 12:33N 35°38' E 139°46'0 0.0
2014-Apr-22 11:29N 35°38' E 139°46'0 0.0
2014-Apr-22 10:29N 35°38' E 139°46'0 0.0
2014-Apr-22 09:32N 35°38' E 139°46'1 0.6
2014-Apr-22 08:33N 35°37' E 139°46'1312.9
2014-Apr-22 07:34N 35°24' E 139°46'1212.2
2014-Apr-22 06:33N 35°12' E 139°47'1817.7
2014-Apr-22 05:33N 34°55' E 139°43'1615.4
2014-Apr-22 04:33N 34°54' E 140°02'1817.6
2014-Apr-22 03:32N 35°02' E 140°22'4217.8
2014-Apr-22 01:11N 35°35' E 140°53'6 0.1
2014-Apr-19 21:15N 35°40' E 140°59'1317.8
2014-Apr-19 20:30N 35°29' E 140°49'1917.7
2014-Apr-19 19:25N 35°14' E 140°34'1817.4
2014-Apr-19 18:25N 35°00' E 140°21'1517.8
2014-Apr-19 17:33N 34°52' E 140°05'1716.5
2014-Apr-19 16:32N 34°51' E 139°45'1616.5
2014-Apr-19 15:33N 35°07' E 139°44'1313.3
2014-Apr-19 14:34N 35°20' E 139°42'1514.8
2014-Apr-19 13:34N 35°34' E 139°49'5 4.8
2014-Apr-19 12:34N 35°38' E 139°46'0 0.0
2014-Apr-19 11:26N 35°38' E 139°46'0 0.0
2014-Apr-19 10:32N 35°38' E 139°46'0 0.0
2014-Apr-19 09:26N 35°38' E 139°46'2 2.8
2014-Apr-19 08:33N 35°36' E 139°47'1313.0
2014-Apr-19 07:33N 35°23' E 139°46'1211.7
2014-Apr-19 06:33N 35°11' E 139°47'1818.1
2014-Apr-19 05:33N 34°53' E 139°42'1414.5
2014-Apr-19 04:33N 34°52' E 140°00'1817.7
2014-Apr-19 03:33N 35°01' E 140°19'1717.6
2014-Apr-19 02:33N 35°13' E 140°35'  
2014-Apr-16 22:06N 35°58' E 141°06'1017.7
2014-Apr-16 21:31N 35°48' E 141°02'1717.4
2014-Apr-16 20:33N 35°33' E 140°53'1918.3
2014-Apr-16 19:32N 35°18' E 140°40'1918.5
2014-Apr-16 18:29N 35°03' E 140°25'1617.7
2014-Apr-16 17:33N 34°54' E 140°07'1717.0
2014-Apr-16 16:33N 34°50' E 139°47'1716.6
2014-Apr-16 15:33N 35°07' E 139°44'1414.1
2014-Apr-16 14:33N 35°20' E 139°42'1514.7
2014-Apr-16 13:33N 35°34' E 139°49'4 4.0
2014-Apr-16 12:29N 35°38' E 139°46'0 0.0
2014-Apr-16 11:32N 35°38' E 139°46'0 0.0
2014-Apr-16 10:29N 35°38' E 139°46'0 0.0
2014-Apr-16 09:29N 35°38' E 139°46'0 0.0
2014-Apr-16 08:30N 35°38' E 139°46'1010.7
2014-Apr-16 07:33N 35°29' E 139°52'1313.2
2014-Apr-16 06:33N 35°17' E 139°46'1716.6
2014-Apr-16 05:33N 35°00' E 139°43'1513.9
2014-Apr-16 04:31N 34°51' E 139°56'1717.9
2014-Apr-16 03:32N 34°59' E 140°15'1717.2
2014-Apr-16 02:32N 35°10' E 140°31'1717.2
2014-Apr-16 01:33N 35°24' E 140°43'  

Dump ship's entire track history

sailing weather and tide predictions

Shin-oh Maru — JG5594 — position and weather